User: anonymous   Login
Location: ??????
(30.5519°N, 47.7720°E)
Time: 20:29:26
(UTC+00:00)
Language:

Cosmos 1655 Rocket - Orbit

View from above orbital plane
View from above orbital plane
View from above satellite
View from above satellite

Ground track
Ground track

The orbit data is extracted from the following two-line orbital elements,

1 15752U 85041B   21127.12032032 -.00000021  00000-0 -38866-4 0  9994
2 15752  82.9485 339.1270 0024991 139.0845 221.2191 13.73123509800727
Epoch (UTC): 07 May 2021 02:53:15
Eccentricity: 0.0024991
inclination: 82.9485°
perigee height: 970 km
apogee height: 1007 km
right ascension of ascending node: 339.1270°
argument of perigee: 139.0845°
revolutions per day: 13.73123509
mean anomaly at epoch: 221.2191°
orbit number at epoch: 80072

The dashed part of the orbit path shows where the satellite is in the earth's shadow,  

DLR